| time (UTC) | temp F | wind direction | speed MPH | gust MPH | rain 1hr in | rain 24hr in | rain mn in | humidity % | barometer mb |
| 20260905172530 | 84 | 206 | 1.0 | 7.0 | 0.00 | 0.04 | 0.00 | 48 | 1019.4 |
| 20260905172030 | 85 | 227 | 2.0 | 7.0 | 0.00 | 0.04 | 0.00 | 48 | 1019.5 |
| 20260905171528 | 84 | 240 | 1.0 | 5.0 | 0.00 | 0.04 | 0.00 | 50 | 1019.5 |
| 20260905171030 | 84 | 221 | 1.0 | 6.0 | 0.00 | 0.04 | 0.00 | 51 | 1019.5 |
| 20260905170527 | 84 | 132 | 3.0 | 6.0 | 0.00 | 0.04 | 0.00 | 50 | 1019.5 |
| 20260905170026 | 83 | 190 | 1.0 | 6.0 | 0.00 | 0.04 | 0.00 | 49 | 1019.5 |
| 20260905165525 | 84 | 200 | 2.0 | 5.0 | 0.00 | 0.04 | 0.00 | 50 | 1019.4 |
| 20260905165022 | 83 | 119 | 0.0 | 4.0 | 0.00 | 0.04 | 0.00 | 52 | 1019.5 |
| 20260905164521 | 81 | 329 | 0.0 | 5.0 | 0.00 | 0.04 | 0.00 | 55 | 1019.5 |
| 20260905164020 | 82 | 290 | 1.0 | 5.0 | 0.00 | 0.04 | 0.00 | 55 | 1019.5 |
| 20260905163519 | 81 | 297 | 0.0 | 2.0 | 0.00 | 0.04 | 0.00 | 55 | 1019.6 |
| 20260905163019 | 80 | 297 | 0.0 | 4.0 | 0.00 | 0.04 | 0.00 | 55 | 1019.6 |
| 20260905162519 | 81 | 223 | 0.0 | 4.0 | 0.00 | 0.04 | 0.00 | 57 | 1019.6 |
| 20260905162017 | 80 | 223 | 0.0 | 5.0 | 0.00 | 0.04 | 0.00 | 56 | 1019.6 |
| 20260905161515 | 80 | 269 | 0.0 | 5.0 | 0.00 | 0.04 | 0.00 | 56 | 1019.6 |
| 20260905161014 | 80 | 298 | 0.0 | 5.0 | 0.00 | 0.04 | 0.00 | 58 | 1019.6 |
| 20260905160512 | 80 | 234 | 1.0 | 5.0 | 0.00 | 0.04 | 0.00 | 58 | 1019.6 |
| 20260905160011 | 80 | 269 | 0.0 | 5.0 | 0.00 | 0.04 | 0.00 | 58 | 1019.6 |
| 20260905155512 | 79 | 197 | 2.0 | 5.0 | 0.00 | 0.04 | 0.00 | 59 | 1019.6 |
| 20260905155008 | 79 | 242 | 1.0 | 5.0 | 0.00 | 0.04 | 0.00 | 59 | 1019.6 |
| 20260905154506 | 78 | 228 | 2.0 | 5.0 | 0.00 | 0.04 | 0.00 | 60 | 1019.6 |
| 20260905154005 | 78 | 195 | 1.0 | 5.0 | 0.00 | 0.04 | 0.00 | 61 | 1019.6 |
| 20260905153504 | 78 | 180 | 2.0 | 5.0 | 0.00 | 0.04 | 0.00 | 60 | 1019.6 |
| 20260905153002 | 78 | 172 | 1.0 | 6.0 | 0.00 | 0.04 | 0.00 | 61 | 1019.7 |
| 20260905152501 | 78 | 192 | 1.0 | 6.0 | 0.00 | 0.04 | 0.00 | 62 | 1019.6 |
| 20260905152104 | 78 | 205 | 1.0 | 5.0 | 0.00 | 0.04 | 0.00 | 61 | 1019.6 |
| 20260905151608 | 78 | 195 | 1.0 | 6.0 | 0.00 | 0.04 | 0.00 | 62 | 1019.6 |
| 20260905151059 | 77 | 181 | 1.0 | 6.0 | 0.00 | 0.04 | 0.00 | 63 | 1019.6 |
| 20260905150557 | 77 | 220 | 0.0 | 5.0 | 0.00 | 0.04 | 0.00 | 63 | 1019.6 |
| 20260905150057 | 76 | 220 | 1.0 | 5.0 | 0.00 | 0.04 | 0.00 | 64 | 1019.5 |
| 20260905145556 | 76 | 155 | 2.0 | 6.0 | 0.00 | 0.04 | 0.00 | 66 | 1019.5 |
| 20260905145054 | 76 | 172 | 2.0 | 6.0 | 0.00 | 0.04 | 0.00 | 65 | 1019.6 |
| 20260905144554 | 76 | 131 | 4.0 | 7.0 | 0.00 | 0.04 | 0.00 | 65 | 1019.5 |
| 20260905144052 | 75 | 125 | 2.0 | 8.0 | 0.00 | 0.04 | 0.00 | 67 | 1019.5 |
| 20260905143551 | 75 | 148 | 3.0 | 8.0 | 0.00 | 0.04 | 0.00 | 68 | 1019.5 |
| 20260905143050 | 74 | 156 | 2.0 | 6.0 | 0.00 | 0.04 | 0.00 | 69 | 1019.5 |
| 20260905142550 | 74 | 172 | 3.0 | 6.0 | 0.00 | 0.04 | 0.00 | 69 | 1019.5 |
| 20260905142053 | 74 | 215 | 1.0 | 7.0 | 0.00 | 0.04 | 0.00 | 69 | 1019.5 |
| 20260905141548 | 74 | 185 | 3.0 | 6.0 | 0.00 | 0.04 | 0.00 | 69 | 1019.4 |
| 20260905141050 | 74 | 128 | 3.0 | 6.0 | 0.00 | 0.04 | 0.00 | 69 | 1019.4 |
| 20260905140546 | 73 | 163 | 2.0 | 6.0 | 0.00 | 0.04 | 0.00 | 70 | 1019.3 |
| 20260905140048 | 73 | 167 | 3.0 | 8.0 | 0.00 | 0.04 | 0.00 | 69 | 1019.3 |
| 20260905135545 | 73 | 161 | 2.0 | 8.0 | 0.00 | 0.05 | 0.00 | 70 | 1019.3 |
| 20260905135042 | 73 | 148 | 2.0 | 6.0 | 0.00 | 0.05 | 0.00 | 71 | 1019.2 |
| 20260905134541 | 72 | 142 | 3.0 | 7.0 | 0.00 | 0.05 | 0.00 | 71 | 1019.2 |
| 20260905134040 | 72 | 134 | 3.0 | 7.0 | 0.00 | 0.05 | 0.00 | 71 | 1019.1 |
| 20260905133538 | 72 | 150 | 4.0 | 6.0 | 0.00 | 0.05 | 0.00 | 72 | 1019.0 |
| 20260905133044 | 72 | 126 | 2.0 | 6.0 | 0.00 | 0.05 | 0.00 | 72 | 1019.0 |
| 20260905132537 | 71 | 126 | 3.0 | 6.0 | 0.00 | 0.05 | 0.00 | 72 | 1019.0 |
| 20260905132036 | 71 | 133 | 2.0 | 6.0 | 0.00 | 0.05 | 0.00 | 73 | 1019.0 |
| 20260905131541 | 71 | 118 | 1.0 | 5.0 | 0.00 | 0.05 | 0.00 | 73 | 1018.9 |
| 20260905131036 | 71 | 120 | 3.0 | 6.0 | 0.00 | 0.05 | 0.00 | 73 | 1018.9 |
| 20260905130534 | 71 | 138 | 3.0 | 6.0 | 0.00 | 0.05 | 0.00 | 73 | 1018.8 |
| 20260905130033 | 71 | 142 | 1.0 | 4.0 | 0.00 | 0.05 | 0.00 | 72 | 1018.8 |
| 20260905125532 | 71 | 146 | 0.0 | 4.0 | 0.00 | 0.08 | 0.00 | 72 | 1018.7 |
| 20260905125031 | 71 | 139 | 0.0 | 6.0 | 0.00 | 0.08 | 0.00 | 71 | 1018.7 |
| 20260905124534 | 71 | 148 | 3.0 | 5.0 | 0.00 | 0.08 | 0.00 | 71 | 1018.6 |
| 20260905124032 | 71 | 147 | 1.0 | 4.0 | 0.00 | 0.08 | 0.00 | 70 | 1018.6 |
| 20260905123531 | 71 | 144 | 1.0 | 4.0 | 0.00 | 0.08 | 0.00 | 70 | 1018.5 |
| 20260905123028 | 71 | 152 | 1.0 | 4.0 | 0.00 | 0.08 | 0.00 | 70 | 1018.5 |
| 20260905122528 | 71 | 152 | 1.0 | 3.0 | 0.00 | 0.08 | 0.00 | 70 | 1018.5 |
| 20260905122028 | 71 | 152 | 0.0 | 4.0 | 0.00 | 0.08 | 0.00 | 69 | 1018.4 |
| 20260905121527 | 71 | 152 | 0.0 | 6.0 | 0.00 | 0.08 | 0.00 | 69 | 1018.5 |
| 20260905121028 | 71 | 168 | 1.0 | 6.0 | 0.00 | 0.08 | 0.00 | 69 | 1018.5 |
| 20260905120527 | 71 | 146 | 1.0 | 5.0 | 0.00 | 0.08 | 0.00 | 69 | 1018.4 |
| 20260905120026 | 71 | 165 | 1.0 | 7.0 | 0.00 | 0.08 | 0.00 | 69 | 1018.4 |
| 20260905115526 | 71 | 151 | 1.0 | 7.0 | 0.00 | 0.09 | 0.00 | 69 | 1018.4 |
| 20260905115027 | 71 | 159 | 2.0 | 7.0 | 0.00 | 0.09 | 0.00 | 69 | 1018.4 |
| 20260905114524 | 71 | 171 | 0.0 | 8.0 | 0.00 | 0.09 | 0.00 | 68 | 1018.3 |
| 20260905114023 | 71 | 172 | 3.0 | 8.0 | 0.00 | 0.09 | 0.00 | 68 | 1018.3 |
| 20260905113523 | 71 | 178 | 2.0 | 5.0 | 0.00 | 0.09 | 0.00 | 69 | 1018.4 |
| 20260905113022 | 71 | 194 | 1.0 | 5.0 | 0.00 | 0.09 | 0.00 | 70 | 1018.3 |
| 20260905112522 | 71 | 194 | 1.0 | 5.0 | 0.00 | 0.09 | 0.00 | 69 | 1018.2 |
| 20260905112024 | 71 | 41 | 0.0 | 2.0 | 0.00 | 0.09 | 0.00 | 71 | 1018.2 |
| 20260905111529 | 71 | 41 | 0.0 | 2.0 | 0.00 | 0.09 | 0.00 | 69 | 1018.1 |
| 20260905111022 | 71 | 41 | 1.0 | 2.0 | 0.00 | 0.09 | 0.00 | 68 | 1018.1 |
| 20260905110519 | 71 | 41 | 0.0 | 1.0 | 0.00 | 0.09 | 0.00 | 68 | 1017.9 |
| 20260905110034 | 71 | 41 | 0.0 | 4.0 | 0.00 | 0.09 | 0.00 | 70 | 1018.0 |
| 20260905105520 | 71 | 41 | 1.0 | 3.0 | 0.00 | 0.10 | 0.00 | 70 | 1018.0 |
| 20260905105020 | 70 | 41 | 0.0 | 2.0 | 0.00 | 0.10 | 0.00 | 70 | 1018.0 |
| 20260905104521 | 71 | 41 | 0.0 | 1.0 | 0.00 | 0.10 | 0.00 | 70 | 1018.0 |
| 20260905104017 | 71 | 41 | 0.0 | 0.0 | 0.00 | 0.10 | 0.00 | 69 | 1017.9 |
| 20260905103519 | 71 | 41 | 0.0 | 0.0 | 0.00 | 0.10 | 0.00 | 70 | 1017.9 |
| 20260905103017 | 71 | 41 | 0.0 | 0.0 | 0.00 | 0.10 | 0.00 | 70 | 1017.8 |
| 20260905102520 | 71 | 41 | 0.0 | 0.0 | 0.00 | 0.10 | 0.00 | 69 | 1017.7 |
| 20260905102016 | 71 | 41 | 0.0 | 1.0 | 0.00 | 0.10 | 0.00 | 69 | 1017.7 |
| 20260905101516 | 71 | 41 | 0.0 | 1.0 | 0.00 | 0.10 | 0.00 | 68 | 1017.7 |
| 20260905101015 | 72 | 41 | 0.0 | 1.0 | 0.00 | 0.10 | 0.00 | 69 | 1017.6 |
| 20260905100515 | 71 | 41 | 0.0 | 1.0 | 0.00 | 0.10 | 0.00 | 70 | 1017.6 |
| 20260905100015 | 71 | 41 | 0.0 | 0.0 | 0.00 | 0.10 | 0.00 | 70 | 1017.7 |
| 20260905095519 | 71 | 41 | 0.0 | 1.0 | 0.00 | 0.10 | 0.00 | 70 | 1017.7 |
| 20260905095016 | 72 | 41 | 0.0 | 1.0 | 0.00 | 0.10 | 0.00 | 70 | 1017.7 |
| 20260905094514 | 72 | 41 | 0.0 | 0.0 | 0.00 | 0.10 | 0.00 | 69 | 1017.6 |
| 20260905094012 | 72 | 41 | 0.0 | 1.0 | 0.00 | 0.10 | 0.00 | 68 | 1017.5 |
| 20260905093512 | 72 | 41 | 0.0 | 2.0 | 0.00 | 0.10 | 0.00 | 66 | 1017.5 |
| 20260905093015 | 72 | 41 | 0.0 | 2.0 | 0.00 | 0.10 | 0.00 | 66 | 1017.5 |
| 20260905092511 | 72 | 41 | 0.0 | 1.0 | 0.00 | 0.10 | 0.00 | 66 | 1017.5 |
| 20260905092011 | 72 | 41 | 0.0 | 2.0 | 0.00 | 0.10 | 0.00 | 67 | 1017.5 |
| 20260905091514 | 72 | 41 | 0.0 | 2.0 | 0.00 | 0.10 | 0.00 | 67 | 1017.4 |
| 20260905091010 | 73 | 1 | 0.0 | 2.0 | 0.00 | 0.10 | 0.00 | 69 | 1017.5 |
| 20260905090509 | 73 | 1 | 0.0 | 1.0 | 0.00 | 0.10 | 0.00 | 67 | 1017.5 |
| 20260905090016 | 73 | 1 | 0.0 | 1.0 | 0.00 | 0.10 | 0.00 | 67 | 1017.5 |
| 20260905085509 | 73 | 1 | 0.0 | 1.0 | 0.00 | 0.10 | 0.00 | 67 | 1017.5 |
| 20260905085008 | 73 | 1 | 0.0 | 1.0 | 0.00 | 0.10 | 0.00 | 66 | 1017.5 |
| 20260905084508 | 73 | 1 | 0.0 | 2.0 | 0.00 | 0.10 | 0.00 | 66 | 1017.6 |
| 20260905084007 | 73 | 1 | 0.0 | 2.0 | 0.00 | 0.10 | 0.00 | 68 | 1017.6 |
| 20260905083507 | 73 | 1 | 0.0 | 2.0 | 0.00 | 0.10 | 0.00 | 68 | 1017.6 |
| 20260905083007 | 74 | 1 | 0.0 | 2.0 | 0.00 | 0.10 | 0.00 | 67 | 1017.5 |
| 20260905082506 | 74 | 1 | 0.0 | 1.0 | 0.00 | 0.10 | 0.00 | 66 | 1017.5 |
| 20260905082008 | 74 | 1 | 0.0 | 1.0 | 0.00 | 0.10 | 0.00 | 68 | 1017.5 |
| 20260905081505 | 74 | 1 | 0.0 | 1.0 | 0.00 | 0.10 | 0.00 | 67 | 1017.6 |
| 20260905081006 | 74 | 1 | 0.0 | 1.0 | 0.00 | 0.10 | 0.00 | 65 | 1017.5 |
| 20260905080503 | 74 | 1 | 0.0 | 0.0 | 0.00 | 0.10 | 0.00 | 66 | 1017.5 |
| 20260905080004 | 74 | 1 | 0.0 | 2.0 | 0.00 | 0.10 | 0.00 | 64 | 1017.5 |
| 20260905075502 | 75 | 1 | 0.0 | 2.0 | 0.00 | 0.10 | 0.00 | 62 | 1017.5 |
| 20260905075003 | 75 | 1 | 0.0 | 2.0 | 0.00 | 0.10 | 0.00 | 62 | 1017.6 |
| 20260905074501 | 75 | 1 | 1.0 | 4.0 | 0.00 | 0.10 | 0.00 | 63 | 1017.6 |
| 20260905074000 | 74 | 1 | 1.0 | 3.0 | 0.00 | 0.10 | 0.00 | 64 | 1017.7 |
| 20260905073602 | 74 | 1 | 0.0 | 1.0 | 0.00 | 0.10 | 0.00 | 65 | 1017.7 |
| 20260905073101 | 75 | 1 | 0.0 | 1.0 | 0.00 | 0.10 | 0.00 | 65 | 1017.7 |
| 20260905072558 | 75 | 1 | 0.0 | 2.0 | 0.00 | 0.10 | 0.00 | 63 | 1017.8 |
| 20260905072059 | 76 | 1 | 0.0 | 2.0 | 0.00 | 0.10 | 0.00 | 62 | 1017.8 |
| 20260905071558 | 76 | 1 | 0.0 | 5.0 | 0.00 | 0.10 | 0.00 | 61 | 1017.8 |
| 20260905071058 | 76 | 1 | 1.0 | 5.0 | 0.00 | 0.10 | 0.00 | 61 | 1017.7 |
| 20260905070555 | 76 | 1 | 1.0 | 3.0 | 0.00 | 0.10 | 0.00 | 61 | 1017.9 |
| 20260905070055 | 76 | 1 | 2.0 | 4.0 | 0.00 | 0.10 | 0.00 | 61 | 1017.8 |
| 20260905065554 | 76 | 56 | 0.0 | 4.0 | 0.00 | 0.10 | 0.00 | 59 | 1017.8 |
| 20260905065054 | 77 | 56 | 0.0 | 2.0 | 0.00 | 0.10 | 0.00 | 60 | 1017.7 |
| 20260905064552 | 77 | 56 | 0.0 | 2.0 | 0.00 | 0.10 | 0.00 | 58 | 1017.7 |
| 20260905064051 | 77 | 56 | 0.0 | 2.0 | 0.00 | 0.10 | 0.00 | 58 | 1017.7 |
| 20260905063551 | 77 | 56 | 0.0 | 4.0 | 0.00 | 0.10 | 0.00 | 58 | 1017.7 |
| 20260905063055 | 77 | 56 | 0.0 | 4.0 | 0.00 | 0.10 | 0.00 | 57 | 1017.7 |
| 20260905062551 | 77 | 38 | 0.0 | 1.0 | 0.00 | 0.10 | 0.00 | 58 | 1017.7 |
| 20260905062049 | 77 | 38 | 0.0 | 1.0 | 0.00 | 0.10 | 0.00 | 57 | 1017.7 |
| 20260905061556 | 78 | 38 | 0.0 | 2.0 | 0.00 | 0.10 | 0.00 | 57 | 1017.8 |
| 20260905061049 | 78 | 38 | 0.0 | 4.0 | 0.00 | 0.10 | 0.00 | 56 | 1017.8 |
| 20260905060546 | 78 | 38 | 0.0 | 4.0 | 0.00 | 0.10 | 0.00 | 55 | 1017.7 |
| 20260905060045 | 78 | 13 | 0.0 | 4.0 | 0.00 | 0.10 | 0.00 | 55 | 1017.7 |
| 20260905055545 | 78 | 47 | 0.0 | 5.0 | 0.00 | 0.10 | 0.10 | 55 | 1017.7 |
| 20260905055048 | 78 | 36 | 0.0 | 5.0 | 0.00 | 0.10 | 0.10 | 56 | 1017.7 |
| 20260905054545 | 78 | 32 | 1.0 | 3.0 | 0.00 | 0.10 | 0.10 | 56 | 1017.7 |
| 20260905054044 | 78 | 69 | 1.0 | 4.0 | 0.00 | 0.10 | 0.10 | 56 | 1017.7 |
| 20260905053545 | 78 | 30 | 0.0 | 2.0 | 0.00 | 0.10 | 0.10 | 56 | 1017.8 |
| 20260905053044 | 78 | 52 | 0.0 | 4.0 | 0.00 | 0.10 | 0.10 | 57 | 1017.8 |
| 20260905052543 | 78 | 45 | 1.0 | 3.0 | 0.00 | 0.10 | 0.10 | 56 | 1017.8 |
| 20260905052043 | 78 | 33 | 0.0 | 2.0 | 0.00 | 0.10 | 0.10 | 57 | 1017.8 |
| 20260905051545 | 78 | 33 | 0.0 | 2.0 | 0.00 | 0.10 | 0.10 | 57 | 1017.8 |
| 20260905051043 | 78 | 33 | 0.0 | 5.0 | 0.00 | 0.10 | 0.10 | 57 | 1017.7 |
| 20260905050543 | 78 | 38 | 0.0 | 5.0 | 0.00 | 0.10 | 0.10 | 56 | 1017.7 |
| 20260905050043 | 78 | 22 | 1.0 | 5.0 | 0.00 | 0.10 | 0.10 | 57 | 1017.7 |
| 20260905045542 | 78 | 36 | 1.0 | 3.0 | 0.00 | 0.10 | 0.10 | 58 | 1017.8 |
| 20260905045042 | 78 | 8 | 1.0 | 4.0 | 0.00 | 0.10 | 0.10 | 57 | 1017.9 |
| 20260905044541 | 79 | 355 | 1.0 | 5.0 | 0.00 | 0.10 | 0.10 | 59 | 1017.9 |
| 20260905044041 | 79 | 346 | 1.0 | 5.0 | 0.00 | 0.10 | 0.10 | 58 | 1017.9 |
| 20260905043543 | 79 | 9 | 0.0 | 5.0 | 0.00 | 0.10 | 0.10 | 58 | 1017.9 |
| 20260905043052 | 79 | 353 | 2.0 | 4.0 | 0.00 | 0.10 | 0.10 | 57 | 1017.9 |
| 20260905042541 | 79 | 15 | 1.0 | 3.0 | 0.00 | 0.10 | 0.10 | 58 | 1017.9 |
| 20260905042043 | 78 | 347 | 1.0 | 4.0 | 0.00 | 0.10 | 0.10 | 58 | 1017.9 |
| 20260905041541 | 78 | 347 | 0.0 | 2.0 | 0.00 | 0.10 | 0.10 | 59 | 1017.8 |
| 20260905041040 | 78 | 347 | 0.0 | 1.0 | 0.00 | 0.10 | 0.10 | 63 | 1017.8 |
| 20260905040540 | 78 | 347 | 0.0 | 1.0 | 0.00 | 0.10 | 0.10 | 61 | 1017.8 |
| 20260905040043 | 77 | 347 | 0.0 | 0.0 | 0.00 | 0.10 | 0.10 | 61 | 1017.7 |
| 20260905035543 | 77 | 347 | 0.0 | 1.0 | 0.00 | 0.10 | 0.10 | 67 | 1017.7 |
| 20260905035043 | 78 | 347 | 0.0 | 1.0 | 0.00 | 0.10 | 0.10 | 66 | 1017.7 |
| 20260905034550 | 78 | 347 | 0.0 | 0.0 | 0.00 | 0.10 | 0.10 | 67 | 1017.6 |
| 20260905034038 | 78 | 347 | 0.0 | 0.0 | 0.00 | 0.10 | 0.10 | 66 | 1017.5 |
| 20260905033540 | 78 | 347 | 0.0 | 1.0 | 0.00 | 0.10 | 0.10 | 66 | 1017.5 |
| 20260905033107 | 79 | 347 | 0.0 | 1.0 | 0.00 | 0.10 | 0.10 | 65 | 1017.4 |
| 20260905032538 | 79 | 347 | 0.0 | 0.0 | 0.00 | 0.10 | 0.10 | 64 | 1017.4 |
| 20260905032038 | 79 | 347 | 0.0 | 2.0 | 0.00 | 0.10 | 0.10 | 62 | 1017.4 |
| 20260905031550 | 79 | 347 | 0.0 | 2.0 | 0.00 | 0.10 | 0.10 | 60 | 1017.4 |
| 20260905031036 | 79 | 347 | 0.0 | 2.0 | 0.00 | 0.10 | 0.10 | 61 | 1017.3 |
| 20260905030535 | 79 | 347 | 1.0 | 2.0 | 0.00 | 0.10 | 0.10 | 62 | 1017.3 |
| 20260905030050 | 79 | 347 | 0.0 | 4.0 | 0.00 | 0.10 | 0.10 | 61 | 1017.3 |
| 20260905025535 | 80 | 347 | 1.0 | 4.0 | 0.00 | 0.10 | 0.10 | 59 | 1017.2 |
| 20260905025034 | 80 | 347 | 0.0 | 4.0 | 0.00 | 0.10 | 0.10 | 57 | 1017.2 |
| 20260905024534 | 80 | 347 | 1.0 | 4.0 | 0.00 | 0.10 | 0.10 | 57 | 1017.1 |
| 20260905024034 | 80 | 350 | 1.0 | 4.0 | 0.00 | 0.10 | 0.10 | 57 | 1017.0 |
| 20260905023534 | 80 | 348 | 0.0 | 4.0 | 0.00 | 0.10 | 0.10 | 57 | 1017.0 |
| 20260905023035 | 80 | 348 | 0.0 | 4.0 | 0.00 | 0.10 | 0.10 | 57 | 1017.0 |
| 20260905022533 | 80 | 348 | 0.0 | 4.0 | 0.00 | 0.10 | 0.10 | 58 | 1016.9 |
| 20260905022034 | 80 | 348 | 1.0 | 3.0 | 0.00 | 0.10 | 0.10 | 57 | 1016.9 |
| 20260905021534 | 80 | 346 | 1.0 | 5.0 | 0.01 | 0.10 | 0.10 | 56 | 1016.9 |
| 20260905021033 | 80 | 342 | 1.0 | 5.0 | 0.01 | 0.10 | 0.10 | 57 | 1016.9 |
| 20260905020533 | 80 | 348 | 1.0 | 5.0 | 0.01 | 0.10 | 0.10 | 58 | 1016.8 |
| 20260905020038 | 80 | 336 | 1.0 | 4.0 | 0.01 | 0.10 | 0.10 | 60 | 1016.7 |
| 20260905015533 | 79 | 300 | 1.0 | 3.0 | 0.04 | 0.10 | 0.10 | 61 | 1016.7 |
| 20260905015032 | 79 | 358 | 1.0 | 4.0 | 0.04 | 0.10 | 0.10 | 62 | 1016.5 |
| 20260905014531 | 79 | 352 | 1.0 | 3.0 | 0.04 | 0.10 | 0.10 | 63 | 1016.6 |
| 20260905014033 | 79 | 352 | 1.0 | 6.0 | 0.04 | 0.10 | 0.10 | 61 | 1016.5 |
| 20260905013532 | 79 | 354 | 1.0 | 6.0 | 0.04 | 0.10 | 0.10 | 64 | 1016.4 |
| 20260905013031 | 79 | 348 | 2.0 | 6.0 | 0.04 | 0.10 | 0.10 | 63 | 1016.4 |
| 20260905012532 | 78 | 1 | 1.0 | 6.0 | 0.04 | 0.10 | 0.10 | 67 | 1016.3 |
| 20260905012032 | 78 | 345 | 3.0 | 7.0 | 0.04 | 0.10 | 0.10 | 68 | 1016.3 |
| 20260905011536 | 77 | 360 | 2.0 | 8.0 | 0.03 | 0.09 | 0.09 | 70 | 1016.3 |
| 20260905011031 | 77 | 13 | 4.0 | 9.0 | 0.03 | 0.09 | 0.09 | 73 | 1016.3 |
| 20260905010531 | 78 | 350 | 5.0 | 11.0 | 0.03 | 0.09 | 0.09 | 68 | 1016.4 |
| 20260905010033 | 80 | 296 | 6.0 | 12.0 | 0.03 | 0.09 | 0.09 | 63 | 1016.5 |
| 20260905005531 | 83 | 312 | 6.0 | 13.0 | 0.00 | 0.06 | 0.06 | 53 | 1016.3 |
| 20260905005031 | 84 | 335 | 7.0 | 13.0 | 0.00 | 0.06 | 0.06 | 48 | 1016.3 |
| 20260905004530 | 84 | 330 | 6.0 | 14.0 | 0.00 | 0.06 | 0.06 | 48 | 1016.3 |
| 20260905004029 | 85 | 336 | 9.0 | 14.0 | 0.00 | 0.06 | 0.06 | 46 | 1016.3 |
| 20260905003529 | 85 | 319 | 5.0 | 14.0 | 0.00 | 0.06 | 0.06 | 46 | 1016.3 |
| 20260905003033 | 86 | 320 | 6.0 | 13.0 | 0.00 | 0.06 | 0.06 | 45 | 1016.2 |
| 20260905002529 | 87 | 311 | 5.0 | 13.0 | 0.00 | 0.06 | 0.06 | 42 | 1016.2 |
| 20260905002029 | 88 | 313 | 7.0 | 13.0 | 0.00 | 0.06 | 0.06 | 40 | 1016.1 |
| 20260905001529 | 90 | 218 | 2.0 | 7.0 | 0.00 | 0.06 | 0.06 | 36 | 1016.0 |
| 20260905001029 | 90 | 226 | 3.0 | 7.0 | 0.00 | 0.06 | 0.06 | 36 | 1015.8 |
| 20260905000529 | 90 | 258 | 3.0 | 7.0 | 0.00 | 0.06 | 0.06 | 36 | 1015.9 |
| 20260905000028 | 90 | 300 | 3.0 | 7.0 | 0.00 | 0.06 | 0.06 | 35 | 1015.8 |
| 20260904235528 | 91 | 319 | 2.0 | 7.0 | 0.00 | 0.06 | 0.06 | 35 | 1015.8 |
| 20260904235028 | 91 | 321 | 3.0 | 7.0 | 0.00 | 0.06 | 0.06 | 34 | 1015.8 |
| 20260904234527 | 91 | 234 | 3.0 | 7.0 | 0.00 | 0.06 | 0.06 | 35 | 1015.8 |
| 20260904234028 | 91 | 240 | 3.0 | 7.0 | 0.00 | 0.06 | 0.06 | 36 | 1015.8 |
| 20260904233528 | 90 | 184 | 2.0 | 7.0 | 0.00 | 0.06 | 0.06 | 36 | 1015.8 |
| 20260904233030 | 90 | 254 | 5.0 | 8.0 | 0.00 | 0.06 | 0.06 | 36 | 1015.8 |
| 20260904232526 | 91 | 249 | 5.0 | 8.0 | 0.00 | 0.06 | 0.06 | 36 | 1015.8 |
| 20260904232028 | 91 | 246 | 2.0 | 6.0 | 0.00 | 0.06 | 0.06 | 37 | 1015.9 |
| 20260904231535 | 91 | 346 | 2.0 | 8.0 | 0.00 | 0.06 | 0.06 | 36 | 1015.9 |
| 20260904231026 | 91 | 310 | 4.0 | 10.0 | 0.00 | 0.06 | 0.06 | 37 | 1016.0 |
| 20260904230526 | 91 | 165 | 1.0 | 10.0 | 0.00 | 0.06 | 0.06 | 37 | 1015.9 |
| 20260904230042 | 91 | 281 | 6.0 | 9.0 | 0.00 | 0.06 | 0.06 | 37 | 1015.9 |
| 20260904225527 | 91 | 281 | 2.0 | 8.0 | 0.00 | 0.06 | 0.06 | 36 | 1015.9 |
| 20260904225026 | 91 | 250 | 4.0 | 8.0 | 0.00 | 0.06 | 0.06 | 36 | 1015.8 |
| 20260904224525 | 90 | 195 | 1.0 | 5.0 | 0.00 | 0.06 | 0.06 | 38 | 1015.8 |
| 20260904224025 | 91 | 119 | 0.0 | 6.0 | 0.00 | 0.06 | 0.06 | 38 | 1015.8 |
| 20260904223524 | 91 | 109 | 2.0 | 5.0 | 0.00 | 0.06 | 0.06 | 39 | 1015.9 |
| 20260904223024 | 89 | 112 | 1.0 | 5.0 | 0.00 | 0.06 | 0.06 | 41 | 1015.9 |
| 20260904222522 | 88 | 334 | 2.0 | 7.0 | 0.00 | 0.06 | 0.06 | 40 | 1016.0 |
| 20260904222022 | 89 | 348 | 3.0 | 7.0 | 0.00 | 0.06 | 0.06 | 40 | 1016.1 |
| 20260904221521 | 90 | 324 | 1.0 | 4.0 | 0.00 | 0.06 | 0.06 | 40 | 1016.2 |
| 20260904221022 | 90 | 18 | 0.0 | 4.0 | 0.00 | 0.06 | 0.06 | 40 | 1016.2 |
| 20260904220521 | 88 | 169 | 0.0 | 2.0 | 0.00 | 0.06 | 0.06 | 42 | 1016.3 |
| 20260904220021 | 89 | 169 | 0.0 | 5.0 | 0.00 | 0.06 | 0.06 | 41 | 1016.4 |
| 20260904215521 | 88 | 240 | 1.0 | 5.0 | 0.00 | 0.06 | 0.06 | 41 | 1016.5 |
| 20260904215019 | 88 | 311 | 0.0 | 6.0 | 0.00 | 0.06 | 0.06 | 41 | 1016.5 |
| 20260904214620 | 89 | 307 | 1.0 | 7.0 | 0.00 | 0.06 | 0.06 | 41 | 1016.5 |
| 20260904214019 | 90 | 334 | 2.0 | 7.0 | 0.00 | 0.06 | 0.06 | 39 | 1016.5 |
| 20260904213518 | 91 | 30 | 0.0 | 8.0 | 0.00 | 0.06 | 0.06 | 39 | 1016.6 |
| 20260904213027 | 90 | 178 | 4.0 | 8.0 | 0.00 | 0.06 | 0.06 | 40 | 1016.8 |
| 20260904212517 | 90 | 260 | 4.0 | 8.0 | 0.00 | 0.06 | 0.06 | 40 | 1016.8 |
| 20260904212017 | 91 | 225 | 3.0 | 8.0 | 0.00 | 0.06 | 0.06 | 40 | 1016.8 |
| 20260904211515 | 90 | 281 | 1.0 | 6.0 | 0.00 | 0.06 | 0.06 | 40 | 1016.8 |
| 20260904211015 | 89 | 31 | 1.0 | 8.0 | 0.00 | 0.06 | 0.06 | 40 | 1016.8 |
| 20260904210515 | 90 | 199 | 2.0 | 8.0 | 0.00 | 0.06 | 0.06 | 40 | 1016.9 |
| 20260904210014 | 90 | 300 | 4.0 | 8.0 | 0.00 | 0.06 | 0.06 | 41 | 1017.0 |
| 20260904205513 | 90 | 169 | 4.0 | 8.0 | 0.00 | 0.06 | 0.06 | 40 | 1017.0 |
| 20260904205012 | 90 | 355 | 1.0 | 10.0 | 0.00 | 0.06 | 0.06 | 39 | 1017.0 |
| 20260904204521 | 90 | 248 | 3.0 | 10.0 | 0.00 | 0.06 | 0.06 | 40 | 1017.1 |
| 20260904204012 | 89 | 232 | 2.0 | 6.0 | 0.00 | 0.06 | 0.06 | 42 | 1017.3 |
| 20260904203510 | 89 | 171 | 2.0 | 5.0 | 0.00 | 0.06 | 0.06 | 41 | 1017.3 |
| 20260904203016 | 88 | 315 | 1.0 | 10.0 | 0.00 | 0.06 | 0.06 | 43 | 1017.5 |
| 20260904202512 | 88 | 182 | 5.0 | 10.0 | 0.00 | 0.06 | 0.06 | 43 | 1017.4 |
| 20260904202010 | 88 | 292 | 2.0 | 9.0 | 0.00 | 0.06 | 0.06 | 43 | 1017.6 |
| 20260904201508 | 89 | 244 | 4.0 | 9.0 | 0.00 | 0.06 | 0.06 | 42 | 1017.7 |
| 20260904201008 | 88 | 265 | 4.0 | 10.0 | 0.00 | 0.06 | 0.06 | 44 | 1017.8 |
| 20260904200509 | 88 | 164 | 4.0 | 10.0 | 0.00 | 0.06 | 0.06 | 42 | 1017.8 |
| 20260904200007 | 88 | 169 | 4.0 | 10.0 | 0.00 | 0.06 | 0.06 | 43 | 1017.8 |
| 20260904195507 | 87 | 184 | 3.0 | 13.0 | 0.00 | 0.06 | 0.06 | 44 | 1017.8 |
| 20260904195007 | 87 | 159 | 3.0 | 13.0 | 0.00 | 0.06 | 0.06 | 44 | 1017.9 |
| 20260904194507 | 88 | 186 | 4.0 | 10.0 | 0.00 | 0.06 | 0.06 | 44 | 1018.1 |
| 20260904194006 | 88 | 173 | 5.0 | 10.0 | 0.00 | 0.06 | 0.06 | 45 | 1018.1 |
| 20260904193504 | 87 | 165 | 0.0 | 4.0 | 0.00 | 0.06 | 0.06 | 45 | 1018.2 |
| 20260904193003 | 86 | 215 | 1.0 | 8.0 | 0.00 | 0.06 | 0.06 | 45 | 1018.2 |
| 20260904192503 | 87 | 300 | 1.0 | 8.0 | 0.00 | 0.06 | 0.06 | 46 | 1018.3 |
| 20260904192003 | 86 | 236 | 3.0 | 10.0 | 0.00 | 0.06 | 0.06 | 45 | 1018.4 |
| 20260904191502 | 86 | 315 | 3.0 | 9.0 | 0.00 | 0.06 | 0.06 | 45 | 1018.5 |
| 20260904191001 | 85 | 237 | 0.0 | 7.0 | 0.00 | 0.06 | 0.06 | 48 | 1018.5 |
| 20260904190501 | 85 | 211 | 4.0 | 7.0 | 0.00 | 0.06 | 0.06 | 49 | 1018.6 |
| 20260904190002 | 85 | 254 | 3.0 | 9.0 | 0.00 | 0.06 | 0.06 | 50 | 1018.7 |
| 20260904185601 | 84 | 241 | 2.0 | 9.0 | 0.00 | 0.06 | 0.06 | 51 | 1018.8 |
| 20260904185104 | 85 | 246 | 5.0 | 9.0 | 0.00 | 0.06 | 0.06 | 49 | 1018.9 |
| 20260904184600 | 85 | 202 | 5.0 | 7.0 | 0.00 | 0.06 | 0.06 | 49 | 1018.9 |
| 20260904184059 | 85 | 123 | 1.0 | 5.0 | 0.00 | 0.06 | 0.06 | 48 | 1019.0 |
| 20260904183601 | 84 | 345 | 0.0 | 8.0 | 0.00 | 0.06 | 0.06 | 50 | 1019.1 |
| 20260904183115 | 84 | 238 | 3.0 | 8.0 | 0.00 | 0.06 | 0.06 | 49 | 1019.3 |
| 20260904182558 | 84 | 161 | 4.0 | 8.0 | 0.00 | 0.06 | 0.06 | 50 | 1019.3 |
| 20260904182056 | 84 | 196 | 2.0 | 8.0 | 0.00 | 0.06 | 0.06 | 52 | 1019.4 |
| 20260904181556 | 84 | 178 | 1.0 | 8.0 | 0.00 | 0.06 | 0.06 | 53 | 1019.5 |
| 20260904181056 | 84 | 294 | 0.0 | 5.0 | 0.00 | 0.06 | 0.06 | 52 | 1019.5 |
| 20260904180556 | 85 | 100 | 1.0 | 3.0 | 0.00 | 0.06 | 0.06 | 53 | 1019.6 |
| 20260904180058 | 83 | 102 | 1.0 | 9.0 | 0.00 | 0.06 | 0.06 | 55 | 1019.7 |
| 20260904175553 | 81 | 254 | 4.0 | 9.0 | 0.00 | 0.06 | 0.06 | 57 | 1019.8 |
| 20260904175052 | 82 | 251 | 2.0 | 7.0 | 0.00 | 0.06 | 0.06 | 57 | 1019.8 |
| 20260904174550 | 81 | 344 | 2.0 | 6.0 | 0.00 | 0.06 | 0.06 | 57 | 1019.8 |
| 20260904174051 | 81 | 205 | 1.0 | 7.0 | 0.00 | 0.06 | 0.06 | 59 | 1019.8 |
| 20260904173550 | 81 | 250 | 3.0 | 7.0 | 0.00 | 0.06 | 0.06 | 58 | 1019.9 |
| 20260904173055 | 81 | 150 | 1.0 | 7.0 | 0.00 | 0.06 | 0.06 | 60 | 1019.9 |